Retour au catalogue

BD-21

ActifNavigationMEO
NORAD 41315·PAYLOAD·🇨🇳 China

Lancé Feb 1, 2016 depuis Xichang Satellite Launch Center

Loading…

Prochains Passages (prochaines 24 heures)

TLE

FraisSource: Space-Track

Époque: Sep 12, 2026, 00:27 UTC

1 41315U 16006A   26255.01900817 -.00000038  00000-0  00000-0 0  9995
2 41315  56.7856  60.7838 0002296 298.9998  60.9964  1.86230776 72214

Suivez BD-21 en temps réel avec AllMySat

Download on the App Store